SHT2V EGLL-EGCC

Flight info

Callsign SHT2V
Flight time N/A
Altitude 18000
Route ULTIB T420 ELVOS
Aircraft A319/M-SDE3FGHIRWY/LB1

Departure

Time N/A
Airport London Heathrow Airport (EGLL)

Arrival

Time 2026-05-05 20:54
Airport Manchester Airport (EGCC)
Time Latitude Longitude Altitude Speed Heading
2026-05-05 20:32 52.54792 -1.15279 18045 ft 370 kts 327°
2026-05-05 20:32 52.56245 -1.16742 18044 ft 370 kts 327°
2026-05-05 20:33 52.58439 -1.18951 18047 ft 370 kts 326°
2026-05-05 20:33 52.60632 -1.21161 18046 ft 370 kts 326°
2026-05-05 20:33 52.62824 -1.23374 18045 ft 369 kts 326°
2026-05-05 20:33 52.65722 -1.26307 18041 ft 369 kts 326°
2026-05-05 20:34 52.67907 -1.28527 18035 ft 369 kts 326°
2026-05-05 20:34 52.70087 -1.30745 18034 ft 369 kts 326°
2026-05-05 20:34 52.71566 -1.32251 18034 ft 369 kts 326°
2026-05-05 20:34 52.73751 -1.34474 18060 ft 369 kts 326°
2026-05-05 20:35 52.75932 -1.36694 18076 ft 369 kts 326°
2026-05-05 20:35 52.78112 -1.38918 18078 ft 368 kts 326°
2026-05-05 20:35 52.80264 -1.41116 18077 ft 368 kts 326°
2026-05-05 20:35 52.82325 -1.43586 18072 ft 366 kts 317°
2026-05-05 20:36 52.84258 -1.46327 18071 ft 366 kts 317°
2026-05-05 20:36 52.86183 -1.49057 18060 ft 362 kts 317°
2026-05-05 20:36 52.88085 -1.51767 18058 ft 361 kts 317°
2026-05-05 20:36 52.89981 -1.54479 18051 ft 359 kts 317°
2026-05-05 20:37 52.91869 -1.57178 18045 ft 359 kts 317°
2026-05-05 20:37 52.93758 -1.59881 18046 ft 356 kts 317°
2026-05-05 20:37 52.95603 -1.62528 17736 ft 347 kts 317°
2026-05-05 20:37 52.97416 -1.65133 17242 ft 343 kts 317°
2026-05-05 20:38 52.99207 -1.67714 16699 ft 340 kts 317°
2026-05-05 20:38 53.00984 -1.70272 16189 ft 336 kts 317°
2026-05-05 20:38 53.02739 -1.72799 15719 ft 331 kts 317°
2026-05-05 20:38 53.04472 -1.75287 15255 ft 327 kts 318°
2026-05-05 20:39 53.06187 -1.77735 14783 ft 323 kts 318°
2026-05-05 20:39 53.07885 -1.80156 14307 ft 321 kts 318°
2026-05-05 20:39 53.09574 -1.82562 13821 ft 318 kts 319°
2026-05-05 20:39 53.11252 -1.84944 13295 ft 316 kts 319°
2026-05-05 20:40 53.12914 -1.87300 12806 ft 312 kts 319°
2026-05-05 20:40 53.14559 -1.89634 12364 ft 308 kts 319°
2026-05-05 20:40 53.16154 -1.91902 12229 ft 295 kts 319°
2026-05-05 20:40 53.17679 -1.94079 12098 ft 283 kts 319°
2026-05-05 20:41 53.19144 -1.96176 11974 ft 273 kts 319°
2026-05-05 20:41 53.20559 -1.98203 11839 ft 263 kts 319°
2026-05-05 20:41 53.21854 -2.00298 11617 ft 258 kts 306°
2026-05-05 20:41 53.22545 -2.03035 11262 ft 261 kts 281°
2026-05-05 20:42 53.22390 -2.06072 10812 ft 270 kts 252°
2026-05-05 20:42 53.21434 -2.08816 10375 ft 278 kts 237°
2026-05-05 20:42 53.20313 -2.11495 9928 ft 284 kts 237°
2026-05-05 20:42 53.19173 -2.14206 9447 ft 286 kts 237°
2026-05-05 20:43 53.18030 -2.16934 8960 ft 288 kts 237°
2026-05-05 20:43 53.16901 -2.19629 8494 ft 288 kts 238°
2026-05-05 20:43 53.15755 -2.22361 8016 ft 285 kts 237°
2026-05-05 20:43 53.14628 -2.25039 7600 ft 279 kts 236°
2026-05-05 20:44 53.13526 -2.27656 7222 ft 274 kts 236°
2026-05-05 20:44 53.12443 -2.30224 6846 ft 268 kts 236°
2026-05-05 20:44 53.11382 -2.32739 6480 ft 264 kts 236°
2026-05-05 20:44 53.10330 -2.35216 6098 ft 259 kts 235°
2026-05-05 20:45 53.08804 -2.40348 5507 ft 245 kts 269°
2026-05-05 20:45 53.09203 -2.43044 5281 ft 239 kts 301°
2026-05-05 20:45 53.10320 -2.44978 5178 ft 228 kts 323°
2026-05-05 20:46 53.11556 -2.46498 5098 ft 214 kts 325°
2026-05-05 20:46 53.12738 -2.47913 4932 ft 206 kts 325°
2026-05-05 20:46 53.13888 -2.49287 4702 ft 201 kts 325°
2026-05-05 20:46 53.15005 -2.50645 4494 ft 196 kts 325°
2026-05-05 20:47 53.16068 -2.51969 4291 ft 187 kts 324°
2026-05-05 20:47 53.17181 -2.52901 4087 ft 173 kts 356°
2026-05-05 20:47 53.18352 -2.52879 3956 ft 166 kts
2026-05-05 20:47 53.19492 -2.52671 3880 ft 161 kts 11°
2026-05-05 20:48 53.20571 -2.52480 3798 ft 152 kts 11°
2026-05-05 20:48 53.21615 -2.52315 3716 ft 150 kts 11°
2026-05-05 20:48 53.22651 -2.52150 3647 ft 149 kts 11°
2026-05-05 20:48 53.23590 -2.51557 3597 ft 143 kts 38°
2026-05-05 20:49 53.24297 -2.50295 3545 ft 154 kts 52°
2026-05-05 20:49 53.24973 -2.48908 3357 ft 152 kts 52°
2026-05-05 20:49 53.25644 -2.47533 3166 ft 154 kts 52°
2026-05-05 20:49 53.26316 -2.46154 2957 ft 153 kts 52°
2026-05-05 20:50 53.26972 -2.44808 2753 ft 149 kts 53°
2026-05-05 20:50 53.27621 -2.43474 2545 ft 145 kts 52°
2026-05-05 20:50 53.28239 -2.42206 2356 ft 135 kts 52°
2026-05-05 20:50 53.28815 -2.41022 2167 ft 128 kts 52°
2026-05-05 20:51 53.29369 -2.39884 2004 ft 125 kts 53°
2026-05-05 20:51 53.29895 -2.38803 1835 ft 116 kts 53°
2026-05-05 20:51 53.30399 -2.37765 1683 ft 114 kts 53°
2026-05-05 20:51 53.30899 -2.36735 1514 ft 114 kts 52°
2026-05-05 20:52 53.31394 -2.35697 1370 ft 115 kts 53°
2026-05-05 20:52 53.31895 -2.34635 1161 ft 118 kts 53°
2026-05-05 20:52 53.32418 -2.33583 1025 ft 118 kts 51°
2026-05-05 20:52 53.32919 -2.32502 870 ft 117 kts 52°
2026-05-05 20:53 53.33445 -2.31441 661 ft 120 kts 50°
2026-05-05 20:53 53.33977 -2.30357 514 ft 121 kts 50°
2026-05-05 20:53 53.34506 -2.29270 372 ft 121 kts 50°
2026-05-05 20:53 53.35034 -2.28195 246 ft 112 kts 51°
2026-05-05 20:54 53.35446 -2.27345 261 ft 72 kts 50°
2026-05-05 20:54 53.35698 -2.26824 267 ft 53 kts 51°
2026-05-05 20:54 53.35816 -2.26676 266 ft 10 kts 353°
2026-05-05 20:54 53.35907 -2.26710 259 ft 19 kts 327°
2026-05-05 20:55 53.35877 -2.26890 254 ft 13 kts 230°
2026-05-05 20:55 53.35818 -2.27037 253 ft 17 kts 239°
2026-05-05 20:55 53.35822 -2.27246 248 ft 21 kts 266°
2026-05-05 20:55 53.35757 -2.27397 248 ft 17 kts 229°
2026-05-05 20:56 53.35680 -2.27546 248 ft 16 kts 230°
2026-05-05 20:56 53.35669 -2.27588 248 ft 3 kts 301°
2026-05-05 20:56 53.35700 -2.27616 248 ft 7 kts 337°
2026-05-05 20:56 53.35758 -2.27658 248 ft 11 kts 336°
2026-05-05 20:57 53.35805 -2.27715 248 ft 6 kts 314°
2026-05-05 20:57 53.35826 -2.27755 248 ft 4 kts 311°
2026-05-05 20:57 53.35829 -2.27761 248 ft 0 kts 311°
2026-05-05 20:57 53.35832 -2.27767 248 ft 2 kts 311°
2026-05-05 20:58 53.35856 -2.27811 248 ft 8 kts 312°
2026-05-05 20:58 53.35924 -2.27847 247 ft 15 kts
2026-05-05 20:58 53.36014 -2.27936 247 ft 13 kts 314°
2026-05-05 20:58 53.36088 -2.28057 247 ft 17 kts 315°
2026-05-05 20:59 53.36167 -2.28192 247 ft 17 kts 315°
2026-05-05 20:59 53.36249 -2.28324 247 ft 16 kts 316°
2026-05-05 20:59 53.36319 -2.28444 247 ft 11 kts 313°
2026-05-05 20:59 53.36388 -2.28467 247 ft 11 kts
2026-05-05 21:00 53.36449 -2.28532 247 ft 11 kts 315°
2026-05-05 21:00 53.36500 -2.28622 247 ft 11 kts 313°
2026-05-05 21:00 53.36552 -2.28711 247 ft 11 kts 313°
2026-05-05 21:00 53.36595 -2.28811 247 ft 11 kts 303°
2026-05-05 21:01 53.36650 -2.28889 247 ft 11 kts 332°
2026-05-05 21:01 53.36706 -2.28969 247 ft 11 kts 315°
2026-05-05 21:01 53.36763 -2.29041 247 ft 10 kts 352°
2026-05-05 21:01 53.36830 -2.28989 247 ft 12 kts 37°
2026-05-05 21:02 53.36858 -2.28919 247 ft 2 kts 125°
2026-05-05 21:02 53.36844 -2.28897 247 ft 3 kts 138°
2026-05-05 21:02 53.36838 -2.28887 247 ft 1 kts 135°
2026-05-05 21:02 53.36833 -2.28878 247 ft 0 kts 134°